Location: Torch Lake Township
(45.0753°N, 85.3586°W)
Time: 18:59:30
(UTC-04:00)

Amateur Radio Satellites - All Passes

Search period start: 29 May 2016 18:29
Search period end: 30 May 2016 18:29
Location: Torch Lake Township, 45.0753°N, 85.3586°W

Satellite Date Start Highest point End Downlink Frequencies (MHz)
Time Altitude Azimuth
YUBILEINY 29 May 18:31:15 18:39:17 41° 290° (WNW) 18:47:24 435.215
Cosmos 2491 29 May 18:32:04 18:36:38 16° 287° (WNW) 18:41:12 435.465 / 435.565
RS-15 29 May 18:42:16 18:53:40 88° 122° (ESE) 19:05:47 29.354- 29.394
DOVE 4 29 May 18:42:36 18:45:46 17° 62° (ENE) 18:48:52 437.250
CUTE-I 29 May 18:51:07 18:56:21 66° 73° (ENE) 19:01:39 437.470
PCSat 29 May 19:16:34 19:22:03 80° 60° (ENE) 19:27:27 145.827
BEESAT 2 29 May 19:21:18 19:23:27 14° 35° (NE) 19:25:33 435.950
O/OREOS (USA 219) 29 May 19:24:05 19:28:25 45° 60° (ENE) 19:32:42 437.305
HO-68 29 May 19:25:39 19:31:25 27° 57° (ENE) 19:37:11 435.675
BRITE-PL 29 May 19:26:35 19:32:11 60° 260° (W) 19:37:49 437.365/2234.400
NOAA 15 29 May 19:33:04 19:38:00 39° 262° (W) 19:42:58 137.62
GOMX 1 29 May 19:39:55 19:45:25 84° 257° (WSW) 19:50:46 467.674
Cubesat XI-IV 29 May 19:45:51 19:50:53 43° 261° (W) 19:55:58 437.490
AUBIESAT-1 29 May 19:49:49 19:53:12 27° 64° (ENE) 19:56:25 437.475
BEESAT 3 29 May 19:50:47 19:54:23 31° 46° (NE) 19:57:56 437.485
SEEDS 29 May 19:52:35 19:54:47 14° 62° (ENE) 19:56:58 437.485
LilacSat-2 29 May 19:52:47 19:56:04 27° 265° (W) 19:59:21 437.200
CANX-2 29 May 19:53:18 19:56:30 21° 65° (ENE) 19:59:43 2200.000
CUBESAT XI-V 29 May 19:54:16 19:58:43 43° 290° (WNW) 20:03:09 437.345
M-CUBED/EXP-1 PRIME 29 May 19:58:04 20:01:54 41° 66° (ENE) 20:05:28 437.505
NOAA 18 29 May 20:03:17 20:07:48 26° 266° (W) 20:12:20 137.9125
Cosmos 2504 29 May 20:04:29 20:10:54 32° 293° (WNW) 20:17:42 435.465 / 435.565
DOVE 4 29 May 20:17:45 20:22:57 73° 258° (WSW) 20:27:56 437.250
CUTE 1.7 + AOD 2 29 May 20:19:23 20:23:11 34° 69° (ENE) 20:27:01 437.475
STRAND 1 29 May 20:29:20 20:34:08 37° 97° (E) 20:38:53 437.568
CINEMA 3 29 May 20:32:17 20:36:49 52° 73° (ENE) 20:41:11 145.822/145.860
COMPASS 1 29 May 20:32:58 20:36:24 25° 67° (ENE) 20:39:51 437.405
CUTE-I 29 May 20:33:26 20:36:54 18° 270° (W) 20:40:24 437.470
AAUSAT CUBESAT 2 29 May 20:33:33 20:36:41 21° 66° (ENE) 20:39:51 437.432
Oscar 11 29 May 20:35:54 20:36:44 10° 58° (ENE) 20:37:34 145.826/435.025
GONETS M04 29 May 20:37:07 20:38:14 10° 69° (ENE) 20:39:20
AIST 1 29 May 20:48:03 20:49:52 12° 83° (E) 20:51:42
ZACube-1 29 May 20:53:16 20:55:22 14° 62° (ENE) 20:57:26 437.345
RS-15 29 May 20:57:02 21:07:45 40° 332° (NNW) 21:19:00 29.354- 29.394
BEESAT 2 29 May 20:57:55 21:01:56 82° 56° (ENE) 21:05:55 435.950
PCSat 29 May 21:01:33 21:04:44 16° 256° (WSW) 21:07:54 145.827
O/OREOS (USA 219) 29 May 21:04:16 21:07:29 20° 259° (WSW) 21:10:41 437.305
CUBEBUG 2 29 May 21:06:45 21:10:45 37° 70° (ENE) 21:14:40 437.445
HO-68 29 May 21:11:27 21:18:34 69° 256° (WSW) 21:25:44 435.675
GOMX 1 29 May 21:22:11 21:24:10 12° 274° (W) 21:26:08 467.674
AUBIESAT-1 29 May 21:24:17 21:27:41 26° 258° (WSW) 21:30:53 437.475
SEEDS 29 May 21:25:51 21:29:59 62° 259° (W) 21:34:10 437.485
CANX-2 29 May 21:28:13 21:32:08 38° 263° (W) 21:36:06 2200.000
FUNcube-1 29 May 21:28:18 21:31:52 28° 68° (ENE) 21:35:27 145.935
BEESAT 3 29 May 21:28:35 21:32:01 28° 244° (WSW) 21:35:24 437.485
UWE-3 29 May 21:30:16 21:34:21 46° 72° (ENE) 21:38:22 435.000/436.395/437.385
M-CUBED/EXP-1 PRIME 29 May 21:33:46 21:36:34 18° 260° (W) 21:39:15 437.505
AIST 2 29 May 21:49:12 21:52:38 24° 42° (NE) 21:56:03 435.215
CUTE 1.7 + AOD 2 29 May 21:55:45 21:59:06 23° 267° (W) 22:02:29 437.475
ISS 29 May 22:03:31 22:06:43 57° 146° (SE) 22:09:57 145.825
PRISM 29 May 22:06:20 22:10:31 65° 102° (ESE) 22:14:37 437.425
Oscar 11 29 May 22:07:51 22:12:09 89° 72° (ENE) 22:16:30 145.826/435.025
AAUSAT CUBESAT 2 29 May 22:08:08 22:11:57 37° 263° (W) 22:15:50 437.432
COMPASS 1 29 May 22:08:12 22:11:51 30° 264° (W) 22:15:34 437.405
STRAND 1 29 May 22:08:43 22:13:12 31° 295° (WNW) 22:17:39 437.568
CINEMA 3 29 May 22:11:07 22:14:14 17° 268° (W) 22:17:15 145.822/145.860
CUSAT 1 29 May 22:12:54 22:19:26 29° 62° (ENE) 22:25:06 437.405
HUMSAT D 29 May 22:15:20 22:18:37 24° 67° (ENE) 22:21:55 437.325/437.525
DELFI C3 29 May 22:18:15 22:22:07 54° 73° (ENE) 22:26:02 145.870
AIST 1 29 May 22:22:30 22:26:52 65° 280° (W) 22:31:17
GONETS M04 29 May 22:24:27 22:32:58 57° 91° (E) 22:41:28
ZACube-1 29 May 22:26:59 22:31:10 64° 258° (WSW) 22:35:19 437.345
DANDE 29 May 22:27:45 22:34:15 24° 59° (ENE) 22:40:22 436.750
ESTCUBE 1 29 May 22:37:01 22:37:40 10° 57° (ENE) 22:38:18 437.505/2401.250
Cosmos 2499 29 May 22:38:00 22:44:39 40° 86° (E) 22:51:48 435.465 / 435.565
BEESAT 2 29 May 22:38:31 22:39:09 10° 252° (WSW) 22:39:46 435.950
CUBEBUG 2 29 May 22:44:12 22:47:30 21° 267° (W) 22:50:46 437.445
ANTELSAT 29 May 22:55:36 22:57:34 13° 90° (E) 22:59:35 437.575/2403.000
FUNcube-1 29 May 23:04:31 23:08:06 27° 265° (W) 23:11:39 145.935
HO-68 29 May 23:05:01 23:07:34 12° 275° (W) 23:10:08 435.675
PHONESAT 2.4 29 May 23:05:46 23:08:26 25° 166° (SSE) 23:11:06 2401.200-2431.200
UWE-3 29 May 23:08:16 23:11:04 17° 268° (W) 23:13:49 435.000/436.395/437.385
RS-15 29 May 23:14:32 23:24:42 30° 6° (N) 23:35:06 29.354- 29.394
UKube-1 29 May 23:18:30 23:20:22 13° 59° (ENE) 23:22:15 .
AISAT 29 May 23:22:17 23:25:35 21° 63° (ENE) 23:28:53 437.250
AIST 2 29 May 23:27:20 23:31:19 45° 241° (WSW) 23:35:15 435.215
ISS 29 May 23:40:17 23:43:18 33° 344° (NNW) 23:46:20 145.825
PRISM 29 May 23:43:10 23:45:19 14° 299° (WNW) 23:47:25 437.425
UNISAT 6 29 May 23:49:20 23:53:30 47° 99° (E) 23:57:44 437.425
HUMSAT D 29 May 23:50:31 23:54:08 31° 264° (W) 23:57:47 437.325/437.525
50 SAT 29 May 23:54:27 23:57:49 38° 71° (ENE) 00:01:15 437.505
CUSAT 1 29 May 23:54:39 00:02:16 65° 266° (W) 00:08:31 437.405
DELFI C3 29 May 23:55:26 23:57:20 13° 270° (W) 23:59:14 145.870
TIGRISAT 29 May 23:56:00 00:00:13 52° 100° (E) 00:04:29 435.000
DUCHIFAT 1 30 May 00:01:56 00:02:05 10° 88° (E) 00:02:14 145.980
DX 1 30 May 00:07:07 00:11:18 45° 70° (ENE) 00:15:29 434.975-435.025
CUBEBUG 1 30 May 00:07:20 00:11:39 53° 72° (ENE) 00:16:00 437.445
ESTCUBE 1 30 May 00:09:09 00:13:40 80° 75° (ENE) 00:18:14 437.505/2401.250
DANDE 30 May 00:09:48 00:18:20 90° 78° (ENE) 00:25:52 436.750
VELOX 1 30 May 00:20:47 00:25:13 73° 74° (ENE) 00:29:41 145.980
GONETS M04 30 May 00:22:21 00:30:12 35° 292° (WNW) 00:38:05
SPROUT 30 May 00:23:32 00:27:19 31° 68° (ENE) 00:31:06 437.525
ANTELSAT 30 May 00:30:27 00:34:43 64° 287° (WNW) 00:39:03 437.575/2403.000
Cosmos 2499 30 May 00:30:45 00:37:41 43° 289° (WNW) 00:45:11 435.465 / 435.565
POPSAT HIP 1 30 May 00:39:56 00:43:39 30° 96° (E) 00:47:19 437.405
QB50P1 30 May 00:40:04 00:43:48 30° 96° (E) 00:47:31 145.935-145.965
TISAT 1 30 May 00:40:06 00:42:28 15° 62° (ENE) 00:44:50 437.305
PHONESAT 2.4 30 May 00:41:54 00:44:48 34° 183° (S) 00:47:41 2401.200-2431.200
QB50P2 30 May 00:43:11 00:47:03 34° 97° (E) 00:50:54 145.880/145.840
POLYITAN 1 30 May 00:45:39 00:49:31 35° 97° (E) 00:53:23 437.675
UKube-1 30 May 00:51:29 00:55:50 77° 258° (WSW) 01:00:11 .
SO-50 30 May 00:56:48 01:01:37 58° 121° (ESE) 01:06:26 436.795
NANOSAT C BR1 30 May 00:56:51 01:00:52 43° 99° (E) 01:04:52 145.865
AISAT 30 May 00:57:28 01:01:45 45° 261° (W) 01:06:04 437.250
ISS 30 May 01:17:34 01:20:22 25° 5° (N) 01:23:09 145.825
JAS-2 30 May 01:26:22 01:32:08 24° 88° (E) 01:37:26 435.910
UNISAT 6 30 May 01:26:55 01:29:55 19° 296° (WNW) 01:32:56 437.425
BEESAT 30 May 01:27:42 01:29:10 11° 56° (NE) 01:30:39 436.000
RS-15 30 May 01:29:10 01:41:01 50° 38° (NE) 01:52:55 29.354- 29.394
50 SAT 30 May 01:29:31 01:31:44 15° 268° (W) 01:33:59 437.505
TIGRISAT 30 May 01:33:46 01:36:33 17° 297° (WNW) 01:39:21 435.000
DUCHIFAT 1 30 May 01:34:08 01:38:20 77° 284° (WNW) 01:42:29 145.980
CUSAT 1 30 May 01:40:06 01:42:33 12° 287° (WNW) 01:44:54 437.405
BUGSAT 1 30 May 01:41:45 01:45:46 60° 101° (E) 01:49:44 437.445
DX 1 30 May 01:44:34 01:47:42 19° 267° (W) 01:50:51 434.975-435.025
CUBEBUG 1 30 May 01:45:28 01:48:16 16° 269° (W) 01:51:05 437.445
ESTCUBE 1 30 May 01:49:41 01:51:04 11° 272° (W) 01:52:27 437.505/2401.250
DANDE 30 May 01:54:10 02:00:00 22° 281° (W) 02:05:27 436.750
SPROUT 30 May 01:59:41 02:03:17 26° 265° (W) 02:06:54 437.525
VELOX 1 30 May 02:00:25 02:02:12 12° 271° (W) 02:03:59 145.980
TISAT 1 30 May 02:13:29 02:17:40 60° 259° (W) 02:21:51 437.305
POPSAT HIP 1 30 May 02:15:50 02:19:21 26° 293° (WNW) 02:22:51 437.405
QB50P1 30 May 02:16:00 02:19:29 26° 293° (WNW) 02:22:58 145.935-145.965
PHONESAT 2.4 30 May 02:18:44 02:21:06 20° 199° (SSW) 02:23:28 2401.200-2431.200
QB50P2 30 May 02:19:21 02:22:41 23° 294° (WNW) 02:26:01 145.880/145.840
POLYITAN 1 30 May 02:21:51 02:25:09 23° 295° (WNW) 02:28:27 437.675
SWISSCUBE 30 May 02:32:14 02:36:46 47° 70° (ENE) 02:41:22 437.505
NANOSAT C BR1 30 May 02:33:22 02:36:19 19° 296° (WNW) 02:39:14 145.865
SO-50 30 May 02:38:20 02:42:27 26° 320° (NW) 02:46:34 436.795
ITUPSAT 1 30 May 02:39:47 02:44:21 49° 70° (ENE) 02:48:58 437.325
YUBILEINY 30 May 02:41:41 02:48:53 27° 64° (ENE) 02:56:04 435.215
Oscar 19 30 May 02:44:54 02:49:46 41° 98° (E) 02:54:35 437.125/150
ISS 30 May 02:54:04 02:57:17 54° 25° (NNE) 03:00:30 145.825
BEESAT 30 May 03:01:24 03:06:10 81° 74° (ENE) 03:10:57 436.000
JAS-2 30 May 03:10:27 03:17:53 69° 289° (WNW) 03:24:29 435.910
KKS-1 30 May 03:16:53 03:19:43 17° 61° (ENE) 03:22:32 437.445
BUGSAT 1 30 May 03:18:40 03:20:40 13° 299° (WNW) 03:22:39 437.445
Gurwin Techsat 1B 30 May 03:28:18 03:33:24 44° 98° (E) 03:38:27 435.225
ITAMSAT 1 30 May 03:32:54 03:36:39 20° 92° (E) 03:40:22 435.822/435.867
Cosmos 2491 30 May 03:41:22 03:48:22 27° 80° (E) 03:55:22 435.465 / 435.565
RS-15 30 May 03:42:04 03:54:09 65° 244° (WSW) 04:06:10 29.354- 29.394
STARS 30 May 03:45:25 03:48:14 17° 62° (ENE) 03:51:03 437.465
MOZHAYETS 4 30 May 03:50:12 03:53:56 26° 66° (ENE) 03:57:42
Cosmos 2504 30 May 03:59:19 04:05:59 25° 63° (ENE) 04:12:52 435.465 / 435.565
SWISSCUBE 30 May 04:11:15 04:14:49 21° 267° (W) 04:18:25 437.505
ITUPSAT 1 30 May 04:19:00 04:22:28 20° 268° (W) 04:25:58 437.325
Oscar 19 30 May 04:24:33 04:28:55 28° 296° (WNW) 04:33:14 437.125/150
AO-7 30 May 04:29:43 04:36:48 29° 94° (E) 04:43:49 29.400- 29.500
ISS 30 May 04:30:48 04:33:33 25° 222° (SW) 04:36:17 145.825
YUBILEINY 30 May 04:37:50 04:46:34 74° 266° (W) 04:55:18 435.215
BEESAT 30 May 04:42:45 04:44:33 12° 272° (W) 04:46:20 436.000
KKS-1 30 May 04:51:26 04:55:51 58° 259° (W) 05:00:16 437.445
JAS-2 30 May 04:57:11 05:01:27 16° 311° (NW) 05:05:30 435.910
Gurwin Techsat 1B 30 May 05:08:41 05:13:08 28° 296° (WNW) 05:17:34 435.225
ITAMSAT 1 30 May 05:11:21 05:16:29 59° 289° (WNW) 05:21:37 435.822/435.867
STARS 30 May 05:19:51 05:24:11 56° 259° (W) 05:28:31 437.465
CUBESAT XI-V 30 May 05:22:33 05:26:31 28° 66° (ENE) 05:30:30 437.345
MOZHAYETS 4 30 May 05:26:45 05:30:57 36° 263° (W) 05:35:11
Cosmos 2491 30 May 05:35:36 05:44:25 71° 281° (WNW) 05:53:15 435.465 / 435.565
Cosmos 2504 30 May 05:51:49 06:00:18 82° 265° (W) 06:09:10 435.465 / 435.565
RS-15 30 May 05:57:50 06:04:03 16° 266° (W) 06:10:16 29.354- 29.394
HORYU 2 30 May 06:07:04 06:11:13 38° 98° (E) 06:15:22 437.375
STRAND 1 30 May 06:13:23 06:13:54 10° 53° (NE) 06:14:24 437.568
AO-7 30 May 06:21:51 06:30:09 69° 294° (WNW) 06:38:26 29.400- 29.500
AO-85 30 May 06:22:49 06:28:07 54° 119° (ESE) 06:33:19 145.980
YUBILEINY 30 May 06:37:17 06:41:44 15° 287° (WNW) 06:46:13 435.215
NOAA 18 30 May 06:42:48 06:46:09 16° 90° (E) 06:49:29 137.9125
CUBESAT XI-V 30 May 06:59:30 07:03:47 35° 264° (W) 07:08:06 437.345
CUTE-I 30 May 07:06:45 07:10:55 22° 92° (E) 07:15:04 437.470
LilacSat-2 30 May 07:23:53 07:27:04 25° 95° (E) 07:30:16 437.200
BRITE-PL 30 May 07:30:17 07:35:06 42° 96° (E) 07:39:30 437.365/2234.400
Cosmos 2491 30 May 07:37:54 07:43:07 17° 305° (NW) 07:48:21 435.465 / 435.565
GOMX 1 30 May 07:41:06 07:44:50 24° 92° (E) 07:48:22 467.674
HORYU 2 30 May 07:44:04 07:47:35 23° 295° (WNW) 07:51:06 437.375
NOAA 15 30 May 07:45:37 07:50:56 68° 103° (ESE) 07:56:11 137.62
SO-50 30 May 07:46:51 07:50:10 18° 33° (NNE) 07:53:24 436.795
STRAND 1 30 May 07:47:03 07:52:05 66° 72° (ENE) 07:57:10 437.568
Cosmos 2504 30 May 07:47:14 07:52:26 18° 284° (WNW) 07:57:47 435.465 / 435.565
Cubesat XI-IV 30 May 08:00:32 08:05:53 65° 102° (ESE) 08:11:13 437.490
AO-85 30 May 08:04:05 08:08:54 31° 318° (NW) 08:13:35 145.980
DOVE 4 30 May 08:15:42 08:19:15 24° 93° (E) 08:22:39 437.250
AO-7 30 May 08:16:11 08:21:29 19° 315° (NW) 08:26:48 29.400- 29.500
NOAA 18 30 May 08:21:54 08:27:23 75° 288° (WNW) 08:32:51 137.9125
Cosmos 2499 30 May 08:25:54 08:31:41 19° 59° (ENE) 08:37:33 435.465 / 435.565
AIST 1 30 May 08:27:37 08:31:39 36° 75° (ENE) 08:35:38
GONETS M04 30 May 08:32:21 08:39:55 31° 66° (ENE) 08:47:24
HO-68 30 May 08:37:55 08:43:09 21° 90° (E) 08:48:20 435.675
CUTE-I 30 May 08:46:03 08:51:16 53° 290° (WNW) 08:56:28 437.470
PRISM 30 May 08:57:20 09:01:26 60° 73° (ENE) 09:05:34 437.425
LilacSat-2 30 May 08:58:12 09:01:20 25° 292° (WNW) 09:04:27 437.200
AUBIESAT-1 30 May 09:02:27 09:03:15 11° 97° (E) 09:04:04 437.475
SEEDS 30 May 09:08:28 09:11:31 19° 92° (E) 09:14:33 437.485
BRITE-PL 30 May 09:09:11 09:13:19 25° 297° (WNW) 09:17:11 437.365/2234.400
M-CUBED/EXP-1 PRIME 30 May 09:10:29 09:12:41 17° 100° (E) 09:14:54 437.505
CANX-2 30 May 09:11:03 09:14:52 31° 96° (E) 09:18:41 2200.000
GOMX 1 30 May 09:18:49 09:23:04 36° 292° (WNW) 09:27:04 467.674
NOAA 15 30 May 09:26:32 09:30:10 19° 301° (WNW) 09:33:47 137.62
SO-50 30 May 09:26:36 09:31:22 88° 55° (NE) 09:35:56 436.795
STRAND 1 30 May 09:28:31 09:31:44 17° 270° (W) 09:34:59 437.568
CUTE 1.7 + AOD 2 30 May 09:37:29 09:41:41 52° 100° (E) 09:45:52 437.475
O/OREOS (USA 219) 30 May 09:38:24 09:42:33 36° 106° (ESE) 09:46:43 437.305
Cubesat XI-IV 30 May 09:41:39 09:45:28 20° 300° (WNW) 09:49:17 437.490
AAUSAT CUBESAT 2 30 May 09:48:18 09:51:58 28° 95° (E) 09:55:37 437.432
COMPASS 1 30 May 09:48:32 09:52:26 35° 97° (E) 09:56:19 437.405
AO-85 30 May 09:49:51 09:51:01 11° 340° (NNW) 09:52:11 145.980
DOVE 4 30 May 09:53:08 09:57:02 32° 292° (WNW) 10:00:46 437.250
Oscar 11 30 May 09:54:26 09:56:50 14° 90° (E) 09:59:13 145.826/435.025
ANTELSAT 30 May 09:56:30 09:59:04 16° 62° (ENE) 10:01:37 437.575/2403.000
PCSat 30 May 10:00:04 10:05:15 49° 115° (ESE) 10:10:29 145.827
CINEMA 3 30 May 10:01:51 10:06:03 82° 283° (WNW) 10:10:11 145.822/145.860
NOAA 18 30 May 10:04:47 10:07:07 13° 306° (NW) 10:09:29 137.9125
AIST 1 30 May 10:05:45 10:09:01 21° 273° (W) 10:12:14
ZACube-1 30 May 10:13:44 10:16:52 20° 93° (E) 10:20:02 437.345
Cosmos 2499 30 May 10:17:36 10:26:16 78° 80° (E) 10:35:11 435.465 / 435.565
HO-68 30 May 10:24:24 10:31:36 79° 289° (WNW) 10:38:46 435.675
GONETS M04 30 May 10:28:48 10:37:21 64° 268° (W) 10:45:52
CUBEBUG 2 30 May 10:31:27 10:35:36 65° 101° (ESE) 10:39:49 437.445
AUBIESAT-1 30 May 10:34:53 10:38:03 45° 293° (WNW) 10:41:15 437.475
PRISM 30 May 10:35:10 10:37:08 13° 270° (W) 10:39:07 437.425
SEEDS 30 May 10:43:22 10:47:25 42° 289° (WNW) 10:51:26 437.485
M-CUBED/EXP-1 PRIME 30 May 10:44:31 10:47:22 28° 296° (WNW) 10:50:12 437.505
CANX-2 30 May 10:47:02 10:50:38 27° 293° (WNW) 10:54:14 2200.000
FUNcube-1 30 May 10:49:30 10:53:33 44° 99° (E) 10:57:38 145.935
UNISAT 6 30 May 10:50:00 10:54:13 52° 72° (ENE) 10:58:23 437.425
UWE-3 30 May 10:53:43 10:57:55 80° 101° (E) 11:02:11 435.000/436.395/437.385
DUCHIFAT 1 30 May 10:55:24 10:56:41 11° 59° (ENE) 10:57:59 145.980
TIGRISAT 30 May 10:56:29 11:00:43 58° 73° (ENE) 11:04:55 435.000
SO-50 30 May 11:09:20 11:11:05 12° 253° (WSW) 11:12:49 436.795
CUTE 1.7 + AOD 2 30 May 11:14:21 11:17:08 17° 297° (WNW) 11:19:55 437.475
CUSAT 1 30 May 11:16:49 11:22:12 25° 81° (E) 11:28:11 437.405
O/OREOS (USA 219) 30 May 11:18:08 11:22:01 27° 304° (NW) 11:25:55 437.305
BEESAT 3 30 May 11:20:53 11:24:12 26° 115° (ESE) 11:27:33 437.485
AAUSAT CUBESAT 2 30 May 11:23:49 11:27:24 27° 292° (WNW) 11:30:57 437.432
COMPASS 1 30 May 11:24:29 11:27:48 23° 294° (WNW) 11:31:07 437.405
DELFI C3 30 May 11:28:31 11:32:34 70° 103° (ESE) 11:36:35 145.870
Oscar 11 30 May 11:29:03 11:33:20 58° 287° (WNW) 11:37:37 145.826/435.025
ANTELSAT 30 May 11:31:06 11:35:21 57° 259° (W) 11:39:35 437.575/2403.000
HUMSAT D 30 May 11:31:21 11:35:09 33° 97° (E) 11:38:59 437.325/437.525
POPSAT HIP 1 30 May 11:34:19 11:37:59 29° 68° (ENE) 11:41:40 437.405
QB50P1 30 May 11:34:23 11:38:04 30° 68° (ENE) 11:41:46 145.935-145.965
QB50P2 30 May 11:37:37 11:41:27 34° 69° (ENE) 11:45:17 145.880/145.840
DANDE 30 May 11:39:55 11:43:41 17° 75° (ENE) 11:47:53 436.750
POLYITAN 1 30 May 11:40:06 11:43:55 34° 69° (ENE) 11:47:46 437.675
JAS-2 30 May 11:41:08 11:45:58 18° 51° (NE) 11:50:53 435.910
PCSat 30 May 11:44:04 11:48:52 31° 314° (NW) 11:53:42 145.827
ZACube-1 30 May 11:49:23 11:53:18 39° 289° (WNW) 11:57:16 437.345
NANOSAT C BR1 30 May 11:50:43 11:54:41 42° 71° (ENE) 11:58:40 145.865
ESTCUBE 1 30 May 12:01:05 12:03:38 15° 90° (E) 12:06:10 437.505/2401.250
CUBEBUG 2 30 May 12:09:45 12:11:46 13° 298° (WNW) 12:13:46 437.445
VELOX 1 30 May 12:11:07 12:12:41 12° 89° (E) 12:14:15 145.980
Cosmos 2499 30 May 12:11:54 12:18:32 26° 280° (W) 12:25:19 435.465 / 435.565
HO-68 30 May 12:13:40 12:18:15 18° 309° (NW) 12:22:49 435.675
FUNcube-1 30 May 12:26:35 12:29:30 19° 296° (WNW) 12:32:27 145.935
DUCHIFAT 1 30 May 12:27:33 12:31:46 82° 257° (WSW) 12:35:59 145.980
Oscar 19 30 May 12:28:32 12:30:14 12° 55° (NE) 12:31:56 437.125/150
UNISAT 6 30 May 12:28:39 12:31:15 15° 269° (W) 12:33:50 437.425
BEESAT 2 30 May 12:28:55 12:32:53 79° 124° (ESE) 12:36:54 435.950
GONETS M04 30 May 12:29:20 12:32:17 12° 289° (WNW) 12:35:13
UWE-3 30 May 12:32:29 12:33:48 11° 300° (WNW) 12:35:08 435.000/436.395/437.385
BUGSAT 1 30 May 12:32:59 12:37:05 55° 72° (ENE) 12:41:09 437.445
TIGRISAT 30 May 12:35:30 12:37:47 14° 270° (W) 12:40:03 435.000
UKube-1 30 May 12:37:56 12:40:26 15° 91° (E) 12:42:56 .
AISAT 30 May 12:45:48 12:49:38 28° 95° (E) 12:53:25 437.250
50 SAT 30 May 12:55:14 12:58:43 36° 98° (E) 13:02:11 437.505
CUSAT 1 30 May 12:56:38 13:03:25 73° 283° (WNW) 13:11:25 437.405
BEESAT 3 30 May 12:58:11 13:01:47 33° 314° (NW) 13:05:25 437.485
DELFI C3 30 May 13:05:17 13:06:53 12° 299° (WNW) 13:08:28 145.870
HUMSAT D 30 May 13:07:18 13:10:38 23° 293° (WNW) 13:13:59 437.325/437.525
POPSAT HIP 1 30 May 13:10:10 13:13:46 27° 265° (W) 13:17:21 437.405
QB50P1 30 May 13:10:16 13:13:51 26° 265° (W) 13:17:26 145.935-145.965
AO-85 30 May 13:13:41 13:16:45 16° 30° (NNE) 13:19:39 145.980
QB50P2 30 May 13:13:56 13:17:19 23° 266° (W) 13:20:43 145.880/145.840
Gurwin Techsat 1B 30 May 13:14:56 13:17:29 14° 56° (NE) 13:20:01 435.225
POLYITAN 1 30 May 13:16:28 13:19:49 23° 266° (W) 13:23:11 437.675
DANDE 30 May 13:19:05 13:25:02 88° 98° (E) 13:32:45 436.750
JAS-2 30 May 13:22:09 13:29:37 71° 71° (ENE) 13:37:29 435.910
AIST 2 30 May 13:27:08 13:30:20 22° 113° (ESE) 13:33:33 435.215
NANOSAT C BR1 30 May 13:27:38 13:30:36 19° 267° (W) 13:33:36 145.865
DX 1 30 May 13:29:07 13:33:28 63° 102° (ESE) 13:37:46 434.975-435.025
CUBEBUG 1 30 May 13:30:00 13:34:24 82° 102° (ESE) 13:38:45 437.445
ESTCUBE 1 30 May 13:36:21 13:40:51 62° 288° (WNW) 13:45:20 437.505/2401.250
SPROUT 30 May 13:42:49 13:46:55 44° 99° (E) 13:50:59 437.525
AO-7 30 May 13:44:08 13:47:42 13° 38° (NE) 13:51:16 29.400- 29.500
VELOX 1 30 May 13:45:15 13:49:41 74° 286° (WNW) 13:54:04 145.980
Cosmos 2491 30 May 13:48:41 13:53:25 15° 53° (NE) 13:58:08 435.465 / 435.565
TISAT 1 30 May 13:56:18 13:59:08 18° 92° (E) 14:01:57 437.305
Oscar 19 30 May 14:03:29 14:08:39 73° 73° (ENE) 14:13:52 437.125/150
BEESAT 2 30 May 14:08:43 14:11:14 16° 323° (NW) 14:13:47 435.950
BUGSAT 1 30 May 14:10:30 14:12:47 14° 269° (W) 14:15:04 437.445
UKube-1 30 May 14:12:36 14:16:50 55° 288° (WNW) 14:21:03 .
AISAT 30 May 14:22:13 14:26:05 30° 293° (WNW) 14:29:55 437.250
50 SAT 30 May 14:29:39 14:32:12 18° 295° (WNW) 14:34:44 437.505
ITUPSAT 1 30 May 14:40:57 14:41:59 11° 87° (E) 14:43:00 437.325
CUSAT 1 30 May 14:42:26 14:47:09 18° 306° (NW) 14:52:13 437.405
Gurwin Techsat 1B 30 May 14:51:18 14:56:37 84° 74° (ENE) 15:01:58 435.225
ITAMSAT 1 30 May 14:52:29 14:57:11 37° 67° (ENE) 15:01:55 435.822/435.867
AO-85 30 May 14:53:23 14:58:10 74° 54° (NE) 15:02:28 145.980
BEESAT 30 May 15:00:31 15:03:45 18° 91° (E) 15:06:57 436.000
DANDE 30 May 15:04:31 15:09:15 20° 305° (NW) 15:14:41 436.750
AIST 2 30 May 15:04:38 15:08:34 42° 311° (NW) 15:12:33 435.215
DX 1 30 May 15:06:41 15:09:10 15° 299° (WNW) 15:11:38 434.975-435.025
CUBEBUG 1 30 May 15:08:23 15:10:02 12° 301° (WNW) 15:11:40 437.445
JAS-2 30 May 15:09:01 15:15:13 27° 271° (W) 15:21:41 435.910
SPROUT 30 May 15:19:33 15:22:33 19° 296° (WNW) 15:25:34 437.525
AO-7 30 May 15:30:39 15:38:29 49° 61° (ENE) 15:46:23 29.400- 29.500
TISAT 1 30 May 15:31:02 15:35:01 43° 289° (WNW) 15:38:57 437.305
Cosmos 2491 30 May 15:43:32 15:52:17 66° 77° (ENE) 16:00:56 435.465 / 435.565
Oscar 19 30 May 15:45:30 15:48:31 15° 271° (W) 15:51:33 437.125/150
YUBILEINY 30 May 15:46:27 15:53:22 28° 81° (E) 16:00:17 435.215
RS-15 30 May 16:01:00 16:07:39 18° 95° (E) 16:14:28 29.354- 29.394
SWISSCUBE 30 May 16:07:43 16:12:33 85° 105° (ESE) 16:17:22 437.505
ITUPSAT 1 30 May 16:15:39 16:20:30 90° 92° (E) 16:25:19 437.325
ITAMSAT 1 30 May 16:32:08 16:36:41 31° 264° (W) 16:41:17 435.822/435.867
Gurwin Techsat 1B 30 May 16:34:40 16:37:14 13° 272° (W) 16:39:49 435.225
AO-85 30 May 16:35:38 16:37:52 14° 253° (WSW) 16:40:01 145.980
BEESAT 30 May 16:37:11 16:41:52 56° 289° (WNW) 16:46:33 436.000
KKS-1 30 May 16:40:53 16:44:22 22° 94° (E) 16:47:51 437.445
Cosmos 2504 30 May 16:44:16 16:47:58 15° 74° (ENE) 16:51:44 435.465 / 435.565
PCSat 30 May 17:03:31 17:06:37 15° 32° (NNE) 17:09:42 145.827
HORYU 2 30 May 17:06:49 17:11:02 45° 71° (ENE) 17:15:16 437.375
STARS 30 May 17:07:45 17:11:10 22° 94° (E) 17:14:33 437.465
BRITE-PL 30 May 17:08:13 17:09:42 11° 54° (NE) 17:11:10 437.365/2234.400
MOZHAYETS 4 30 May 17:19:12 17:23:40 44° 98° (E) 17:28:06
AO-7 30 May 17:23:35 17:31:20 43° 261° (W) 17:39:11 29.400- 29.500
NOAA 15 30 May 17:29:55 17:33:44 20° 60° (ENE) 17:37:33 137.62
YUBILEINY 30 May 17:40:45 17:49:23 69° 282° (WNW) 17:58:06 435.215
Cosmos 2491 30 May 17:41:19 17:48:25 29° 279° (W) 17:55:30 435.465 / 435.565
Cubesat XI-IV 30 May 17:46:43 17:50:27 20° 60° (ENE) 17:54:12 437.490
SWISSCUBE 30 May 17:47:22 17:49:41 14° 302° (WNW) 17:51:58 437.505
ITUPSAT 1 30 May 17:55:29 17:57:37 13° 303° (WNW) 17:59:45 437.325
O/OREOS (USA 219) 30 May 18:08:08 18:10:29 14° 47° (NE) 18:12:50 437.305
LilacSat-2 30 May 18:08:26 18:11:02 18° 66° (ENE) 18:13:39 437.200
NOAA 18 30 May 18:10:26 18:15:26 38° 66° (ENE) 18:20:25 137.9125
KKS-1 30 May 18:16:58 18:21:04 38° 291° (WNW) 18:25:10 437.445
